User: anonymous   Login
Location: ??????
(38.0677°N, 22.9870°E)
Time: 08:18:28
(UTC+00:00)
Language:

Cosmos 2074 Rocket - Orbit

View from above orbital plane
View from above orbital plane
View from above satellite
View from above satellite

Ground track
Ground track

The orbit data is extracted from the following two-line orbital elements,

1 20578U 90036B   24202.88006803  .00000216  00000-0  20569-3 0  9997
2 20578  82.9411 236.4532 0011513 295.0985 238.4933 13.76512211720070
Epoch (UTC): 20 July 2024 21:07:17
Eccentricity: 0.0011513
inclination: 82.9411°
perigee height: 968 km
apogee height: 985 km
right ascension of ascending node: 236.4532°
argument of perigee: 295.0985°
revolutions per day: 13.76512211
mean anomaly at epoch: 238.4933°
orbit number at epoch: 72007

The dashed part of the orbit path shows where the satellite is in the earth's shadow,  

DLR